| time (UTC) | temp F | wind direction | speed MPH | gust MPH | rain 1hr in | rain 24hr in | rain mn in | humidity % | barometer mb |
| 20260504050338 | 78 | 120 | 0.0 | 0.0 | 0.00 | 0.00 | 0.00 | 100 | 1015.2 |
| 20260504050318 | 78 | 120 | 0.0 | 0.0 | 0.00 | 0.00 | 0.00 | 100 | 1015.3 |
| 20260504045818 | 78 | 120 | 0.0 | 0.0 | 0.00 | 0.00 | 0.00 | 100 | 1015.2 |
| 20260504045318 | 78 | 120 | 0.0 | 0.0 | 0.00 | 0.00 | 0.00 | 100 | 1015.2 |
| 20260504044818 | 78 | 120 | 0.0 | 0.0 | 0.00 | 0.00 | 0.00 | 100 | 1015.3 |
| 20260504044318 | 78 | 120 | 0.0 | 0.0 | 0.00 | 0.00 | 0.00 | 100 | 1015.3 |
| 20260504044140 | 79 | 120 | 0.0 | 3.0 | 0.00 | 0.00 | 0.00 | 100 | 1014.8 |
| 20260504043818 | 79 | 120 | 0.0 | 3.0 | 0.00 | 0.00 | 0.00 | 100 | 1014.8 |
| 20260504043318 | 79 | 21 | 0.0 | 4.0 | 0.00 | 0.00 | 0.00 | 100 | 1015.1 |
| 20260504042818 | 79 | 157 | 0.0 | 4.0 | 0.00 | 0.00 | 0.00 | 100 | 1015.2 |
| 20260504042318 | 79 | 192 | 0.0 | 2.0 | 0.00 | 0.00 | 0.00 | 100 | 1015.4 |
| 20260504041818 | 79 | 187 | 0.0 | 2.0 | 0.00 | 0.00 | 0.00 | 100 | 1015.6 |
| 20260504041318 | 79 | 205 | 1.0 | 2.0 | 0.00 | 0.00 | 0.00 | 100 | 1015.6 |
| 20260504040818 | 79 | 151 | 0.0 | 1.0 | 0.00 | 0.00 | 0.00 | 100 | 1015.7 |
| 20260504040318 | 79 | 66 | 0.0 | 0.0 | 0.00 | 0.00 | 0.00 | 100 | 1015.8 |
| 20260504035818 | 79 | 66 | 0.0 | 0.0 | 0.00 | 0.00 | 0.00 | 100 | 1015.8 |
| 20260504035318 | 79 | 66 | 0.0 | 0.0 | 0.00 | 0.00 | 0.00 | 100 | 1015.8 |
| 20260504034818 | 79 | 66 | 0.0 | 0.0 | 0.00 | 0.00 | 0.00 | 100 | 1015.8 |
| 20260504034318 | 79 | 66 | 0.0 | 4.0 | 0.00 | 0.00 | 0.00 | 100 | 1015.8 |
| 20260504033818 | 79 | 77 | 0.0 | 1.0 | 0.00 | 0.00 | 0.00 | 100 | 1015.8 |
| 20260504033318 | 79 | 60 | 0.0 | 0.0 | 0.00 | 0.00 | 0.00 | 100 | 1015.7 |
| 20260504033141 | 79 | 60 | 0.0 | 0.0 | 0.00 | 0.00 | 0.00 | 100 | 1015.7 |
| 20260504032818 | 79 | 60 | 0.0 | 0.0 | 0.00 | 0.00 | 0.00 | 100 | 1015.7 |
| 20260504032743 | 79 | 60 | 0.0 | 0.0 | 0.00 | 0.00 | 0.00 | 100 | 1015.6 |
| 20260504032318 | 79 | 60 | 0.0 | 0.0 | 0.00 | 0.00 | 0.00 | 100 | 1015.7 |
| 20260504031818 | 79 | 60 | 0.0 | 0.0 | 0.00 | 0.00 | 0.00 | 100 | 1015.7 |
| 20260504031318 | 79 | 60 | 0.0 | 0.0 | 0.00 | 0.00 | 0.00 | 100 | 1015.7 |
| 20260504030818 | 79 | 60 | 0.0 | 0.0 | 0.00 | 0.00 | 0.00 | 100 | 1015.6 |
| 20260504030318 | 79 | 60 | 0.0 | 0.0 | 0.00 | 0.00 | 0.00 | 100 | 1015.6 |
| 20260504025818 | 80 | 60 | 0.0 | 0.0 | 0.00 | 0.00 | 0.00 | 100 | 1015.6 |
| 20260504025318 | 80 | 60 | 0.0 | 1.0 | 0.00 | 0.00 | 0.00 | 100 | 1015.5 |
| 20260504024818 | 80 | 165 | 1.0 | 2.0 | 0.00 | 0.00 | 0.00 | 100 | 1015.6 |
| 20260504024318 | 80 | 113 | 0.0 | 4.0 | 0.00 | 0.00 | 0.00 | 100 | 1015.4 |
| 20260504023818 | 80 | 116 | 0.0 | 2.0 | 0.00 | 0.00 | 0.00 | 100 | 1014.1 |
| 20260504023318 | 80 | 71 | 0.0 | 3.0 | 0.00 | 0.00 | 0.00 | 100 | 1015.4 |
| 20260504022818 | 80 | 94 | 0.0 | 4.0 | 0.00 | 0.00 | 0.00 | 100 | 1015.3 |
| 20260504022318 | 80 | 64 | 1.0 | 5.0 | 0.00 | 0.00 | 0.00 | 100 | 1015.2 |
| 20260504022229 | 80 | 54 | 0.0 | 4.0 | 0.00 | 0.00 | 0.00 | 100 | 1015.3 |
| 20260504021818 | 80 | 54 | 0.0 | 4.0 | 0.00 | 0.00 | 0.00 | 100 | 1015.3 |
| 20260504021318 | 80 | 33 | 1.0 | 3.0 | 0.00 | 0.00 | 0.00 | 100 | 1015.2 |
| 20260504020818 | 80 | 25 | 0.0 | 4.0 | 0.00 | 0.00 | 0.00 | 100 | 1015.1 |
| 20260504020318 | 80 | 92 | 2.0 | 6.0 | 0.00 | 0.00 | 0.00 | 100 | 1015.0 |
| 20260504015818 | 80 | 66 | 2.0 | 6.0 | 0.00 | 0.00 | 0.00 | 100 | 1015.0 |
| 20260504015318 | 80 | 108 | 2.0 | 3.0 | 0.00 | 0.00 | 0.00 | 100 | 1014.9 |
| 20260504014818 | 80 | 70 | 0.0 | 4.0 | 0.00 | 0.00 | 0.00 | 100 | 1014.8 |
| 20260504014318 | 80 | 63 | 4.0 | 5.0 | 0.00 | 0.00 | 0.00 | 100 | 1014.7 |
| 20260504013818 | 80 | 88 | 0.0 | 3.0 | 0.00 | 0.00 | 0.00 | 100 | 1014.6 |
| 20260504013318 | 80 | 77 | 0.0 | 5.0 | 0.00 | 0.00 | 0.00 | 100 | 1014.5 |
| 20260504013228 | 80 | 37 | 0.0 | 6.0 | 0.00 | 0.00 | 0.00 | 100 | 1014.4 |
| 20260504012917 | 80 | 37 | 0.0 | 6.0 | 0.00 | 0.00 | 0.00 | 100 | 1014.4 |
| 20260504012818 | 80 | 37 | 0.0 | 6.0 | 0.00 | 0.00 | 0.00 | 100 | 1014.4 |
| 20260504012444 | 80 | 78 | 4.0 | 4.0 | 0.00 | 0.00 | 0.00 | 100 | 1014.3 |
| 20260504012318 | 80 | 29 | 0.0 | 6.0 | 0.00 | 0.00 | 0.00 | 100 | 1014.4 |
| 20260504011818 | 80 | 78 | 4.0 | 4.0 | 0.00 | 0.00 | 0.00 | 100 | 1014.3 |
| 20260504011338 | 80 | 63 | 0.0 | 0.0 | 0.00 | 0.00 | 0.00 | 100 | 1011.5 |
| 20260504011318 | 80 | 49 | 0.0 | 4.0 | 0.00 | 0.00 | 0.00 | 100 | 1014.4 |
| 20260504010818 | 80 | 63 | 0.0 | 0.0 | 0.00 | 0.00 | 0.00 | 100 | 1011.5 |
| 20260504010339 | 80 | 63 | 0.0 | 2.0 | 0.00 | 0.00 | 0.00 | 100 | 1011.6 |
| 20260504010318 | 80 | 63 | 0.0 | 0.0 | 0.00 | 0.00 | 0.00 | 100 | 1014.1 |
| 20260504005818 | 80 | 63 | 0.0 | 2.0 | 0.00 | 0.00 | 0.00 | 100 | 1011.6 |
| 20260504005318 | 80 | 32 | 0.0 | 4.0 | 0.00 | 0.00 | 0.00 | 100 | 1011.7 |
| 20260504004818 | 80 | 92 | 1.0 | 6.0 | 0.00 | 0.00 | 0.00 | 100 | 1011.4 |
| 20260504004318 | 80 | 64 | 1.0 | 9.0 | 0.00 | 0.00 | 0.00 | 100 | 1011.9 |
| 20260504003818 | 80 | 16 | 4.0 | 8.0 | 0.00 | 0.00 | 0.00 | 100 | 1011.4 |
| 20260504003730 | 81 | 78 | 4.0 | 5.0 | 0.00 | 0.00 | 0.00 | 100 | 1012.0 |
| 20260504003318 | 81 | 25 | 3.0 | 7.0 | 0.00 | 0.00 | 0.00 | 100 | 1011.3 |
| 20260504002818 | 81 | 78 | 4.0 | 5.0 | 0.00 | 0.00 | 0.00 | 100 | 1012.0 |
| 20260504002318 | 81 | 42 | 1.0 | 6.0 | 0.00 | 0.00 | 0.00 | 100 | 1011.4 |
| 20260504001818 | 80 | 23 | 4.0 | 8.0 | 0.00 | 0.00 | 0.00 | 100 | 1011.2 |
| 20260504001318 | 81 | 8 | 1.0 | 5.0 | 0.00 | 0.00 | 0.00 | 100 | 1011.7 |
| 20260504000818 | 81 | 15 | 0.0 | 7.0 | 0.00 | 0.00 | 0.00 | 100 | 1011.7 |
| 20260504000318 | 81 | 97 | 0.0 | 7.0 | 0.00 | 0.00 | 0.00 | 100 | 1013.1 |
| 20260503235818 | 81 | 16 | 0.0 | 7.0 | 0.00 | 0.00 | 0.00 | 100 | 1013.5 |
| 20260503235318 | 81 | 91 | 5.0 | 7.0 | 0.00 | 0.00 | 0.00 | 100 | 1013.5 |
| 20260503234818 | 81 | 81 | 0.0 | 7.0 | 0.00 | 0.00 | 0.00 | 100 | 1013.5 |
| 20260503234318 | 82 | 50 | 0.0 | 9.0 | 0.00 | 0.00 | 0.00 | 100 | 1012.2 |
| 20260503233818 | 82 | 81 | 5.0 | 8.0 | 0.00 | 0.00 | 0.00 | 100 | 1013.5 |
| 20260503233318 | 82 | 18 | 5.0 | 7.0 | 0.00 | 0.00 | 0.00 | 100 | 1013.5 |
| 20260503232818 | 82 | 18 | 2.0 | 7.0 | 0.00 | 0.00 | 0.00 | 100 | 1013.5 |
| 20260503232318 | 82 | 5 | 2.0 | 8.0 | 0.00 | 0.00 | 0.00 | 100 | 1013.6 |
| 20260503231818 | 82 | 358 | 6.0 | 8.0 | 0.00 | 0.00 | 0.00 | 100 | 1013.7 |
| 20260503231318 | 82 | 14 | 2.0 | 8.0 | 0.00 | 0.00 | 0.00 | 100 | 1013.7 |
| 20260503230818 | 82 | 16 | 0.0 | 7.0 | 0.00 | 0.00 | 0.00 | 100 | 1013.7 |
| 20260503230318 | 82 | 336 | 2.0 | 8.0 | 0.00 | 0.00 | 0.00 | 100 | 1013.6 |
| 20260503225818 | 82 | 28 | 3.0 | 9.0 | 0.00 | 0.00 | 0.00 | 100 | 1013.5 |
| 20260503225358 | 82 | 355 | 4.0 | 9.0 | 0.00 | 0.00 | 0.00 | 100 | 1013.5 |
| 20260503225318 | 82 | 355 | 4.0 | 9.0 | 0.00 | 0.00 | 0.00 | 100 | 1013.5 |
| 20260503224818 | 83 | 14 | 0.0 | 9.0 | 0.00 | 0.00 | 0.00 | 100 | 1013.5 |
| 20260503224318 | 83 | 323 | 6.0 | 8.0 | 0.00 | 0.00 | 0.00 | 100 | 1013.4 |
| 20260503223818 | 82 | 15 | 4.0 | 10.0 | 0.00 | 0.00 | 0.00 | 100 | 1013.4 |
| 20260503223318 | 83 | 298 | 1.0 | 8.0 | 0.00 | 0.00 | 0.00 | 100 | 1013.5 |
| 20260503222818 | 83 | 36 | 1.0 | 8.0 | 0.00 | 0.00 | 0.00 | 100 | 1013.4 |
| 20260503222739 | 83 | 22 | 1.0 | 10.0 | 0.00 | 0.00 | 0.00 | 100 | 1013.5 |
| 20260503222320 | 83 | 63 | 1.0 | 8.0 | 0.00 | 0.00 | 0.00 | 100 | 1013.5 |
| 20260503221818 | 83 | 343 | 0.0 | 9.0 | 0.00 | 0.00 | 0.00 | 100 | 1013.5 |
| 20260503221319 | 83 | 22 | 1.0 | 10.0 | 0.00 | 0.00 | 0.00 | 100 | 1013.5 |
| 20260503221147 | 83 | 36 | 2.0 | 10.0 | 0.00 | 0.00 | 0.00 | 100 | 1013.5 |
| 20260503220818 | 83 | 36 | 2.0 | 10.0 | 0.00 | 0.00 | 0.00 | 100 | 1013.5 |
| 20260503220318 | 82 | 0 | 8.0 | 9.0 | 0.00 | 0.00 | 0.00 | 100 | 1013.5 |
| 20260503215818 | 82 | 75 | 3.0 | 8.0 | 0.00 | 0.00 | 0.00 | 100 | 1013.6 |
| 20260503215318 | 83 | 322 | 5.0 | 11.0 | 0.00 | 0.00 | 0.00 | 100 | 1013.6 |
| 20260503214818 | 83 | 66 | 2.0 | 10.0 | 0.00 | 0.00 | 0.00 | 100 | 1013.6 |
| 20260503214318 | 83 | 28 | 2.0 | 9.0 | 0.00 | 0.00 | 0.00 | 100 | 1013.6 |
| 20260503213818 | 83 | 9 | 4.0 | 10.0 | 0.00 | 0.00 | 0.00 | 100 | 1013.4 |
| 20260503213318 | 82 | 59 | 1.0 | 11.0 | 0.00 | 0.00 | 0.00 | 100 | 1013.4 |
| 20260503213036 | 82 | 26 | 2.0 | 9.0 | 0.00 | 0.00 | 0.00 | 100 | 1013.4 |
| 20260503212818 | 82 | 26 | 2.0 | 9.0 | 0.00 | 0.00 | 0.00 | 100 | 1013.4 |
| 20260503212613 | 82 | 80 | 5.0 | 11.0 | 0.00 | 0.00 | 0.00 | 100 | 1013.5 |
| 20260503212318 | 82 | 80 | 5.0 | 11.0 | 0.00 | 0.00 | 0.00 | 100 | 1013.5 |
| 20260503211818 | 83 | 45 | 7.0 | 11.0 | 0.00 | 0.00 | 0.00 | 100 | 1013.5 |
| 20260503211318 | 83 | 85 | 5.0 | 11.0 | 0.00 | 0.00 | 0.00 | 100 | 1013.5 |
| 20260503210818 | 83 | 104 | 1.0 | 10.0 | 0.00 | 0.00 | 0.00 | 100 | 1013.5 |
| 20260503210318 | 83 | 348 | 2.0 | 10.0 | 0.00 | 0.00 | 0.00 | 100 | 1013.5 |
| 20260503205818 | 82 | 16 | 1.0 | 10.0 | 0.00 | 0.00 | 0.00 | 100 | 1013.6 |
| 20260503205318 | 83 | 4 | 6.0 | 10.0 | 0.00 | 0.00 | 0.00 | 100 | 1013.5 |
| 20260503204818 | 83 | 327 | 10.0 | 10.0 | 0.00 | 0.00 | 0.00 | 100 | 1013.6 |
| 20260503204318 | 83 | 47 | 3.0 | 11.0 | 0.00 | 0.00 | 0.00 | 100 | 1013.6 |
| 20260503203818 | 83 | 19 | 4.0 | 11.0 | 0.00 | 0.00 | 0.00 | 100 | 1013.4 |
| 20260503203319 | 83 | 5 | 5.0 | 11.0 | 0.00 | 0.00 | 0.00 | 100 | 1013.5 |
| 20260503202819 | 83 | 61 | 1.0 | 11.0 | 0.00 | 0.00 | 0.00 | 100 | 1013.6 |
| 20260503202319 | 83 | 37 | 1.0 | 11.0 | 0.00 | 0.00 | 0.00 | 100 | 1013.6 |
| 20260503201818 | 83 | 9 | 5.0 | 11.0 | 0.00 | 0.00 | 0.00 | 100 | 1013.3 |
| 20260503201318 | 83 | 19 | 9.0 | 12.0 | 0.00 | 0.00 | 0.00 | 100 | 1013.8 |
| 20260503200819 | 83 | 102 | 3.0 | 13.0 | 0.00 | 0.00 | 0.00 | 100 | 1013.9 |
| 20260503200319 | 83 | 326 | 8.0 | 11.0 | 0.00 | 0.00 | 0.00 | 100 | 1013.9 |
| 20260503195818 | 84 | 327 | 6.0 | 11.0 | 0.00 | 0.00 | 0.00 | 100 | 1014.1 |
| 20260503195319 | 83 | 63 | 9.0 | 12.0 | 0.00 | 0.00 | 0.00 | 100 | 1014.1 |
| 20260503195235 | 83 | 43 | 6.0 | 11.0 | 0.00 | 0.00 | 0.00 | 100 | 1014.3 |
| 20260503194819 | 83 | 43 | 6.0 | 11.0 | 0.00 | 0.00 | 0.00 | 100 | 1014.3 |
| 20260503194319 | 83 | 33 | 9.0 | 11.0 | 0.00 | 0.00 | 0.00 | 100 | 1014.2 |
| 20260503193819 | 83 | 47 | 3.0 | 11.0 | 0.00 | 0.00 | 0.00 | 100 | 1014.1 |
| 20260503193319 | 83 | 5 | 5.0 | 12.0 | 0.00 | 0.00 | 0.00 | 100 | 1014.3 |
| 20260503192819 | 84 | 32 | 6.0 | 9.0 | 0.00 | 0.00 | 0.00 | 100 | 1014.3 |
| 20260503192319 | 83 | 53 | 5.0 | 10.0 | 0.00 | 0.00 | 0.00 | 100 | 1014.5 |
| 20260503191819 | 83 | 42 | 9.0 | 14.0 | 0.00 | 0.00 | 0.00 | 100 | 1014.6 |
| 20260503191610 | 83 | 68 | 6.0 | 11.0 | 0.00 | 0.00 | 0.00 | 100 | 1014.6 |
| 20260503191319 | 83 | 68 | 6.0 | 11.0 | 0.00 | 0.00 | 0.00 | 100 | 1014.6 |
| 20260503190819 | 83 | 46 | 6.0 | 10.0 | 0.00 | 0.00 | 0.00 | 100 | 1014.8 |
| 20260503190319 | 83 | 40 | 7.0 | 14.0 | 0.00 | 0.00 | 0.00 | 100 | 1014.8 |
| 20260503185819 | 83 | 56 | 6.0 | 10.0 | 0.00 | 0.00 | 0.00 | 100 | 1014.9 |
| 20260503185319 | 82 | 21 | 7.0 | 12.0 | 0.00 | 0.00 | 0.00 | 100 | 1015.0 |
| 20260503184819 | 83 | 82 | 2.0 | 11.0 | 0.00 | 0.00 | 0.00 | 100 | 1015.2 |
| 20260503184319 | 83 | 352 | 8.0 | 13.0 | 0.00 | 0.00 | 0.00 | 100 | 1015.2 |
| 20260503184251 | 83 | 25 | 13.0 | 13.0 | 0.00 | 0.00 | 0.00 | 100 | 1015.3 |
| 20260503184218 | 83 | 25 | 13.0 | 13.0 | 0.00 | 0.00 | 0.00 | 100 | 1015.3 |
| 20260503183819 | 83 | 25 | 13.0 | 13.0 | 0.00 | 0.00 | 0.00 | 100 | 1015.3 |
| 20260503183319 | 83 | 77 | 9.0 | 10.0 | 0.00 | 0.00 | 0.00 | 100 | 1015.2 |
| 20260503182819 | 83 | 46 | 6.0 | 10.0 | 0.00 | 0.00 | 0.00 | 100 | 1015.3 |
| 20260503182319 | 83 | 35 | 5.0 | 8.0 | 0.00 | 0.00 | 0.00 | 100 | 1015.4 |
| 20260503181819 | 85 | 23 | 1.0 | 8.0 | 0.00 | 0.00 | 0.00 | 100 | 1015.5 |
| 20260503181319 | 85 | 90 | 5.0 | 6.0 | 0.00 | 0.00 | 0.00 | 100 | 1015.5 |
| 20260503180819 | 85 | 352 | 0.0 | 4.0 | 0.00 | 0.00 | 0.00 | 100 | 1015.5 |
| 20260503180424 | 85 | 113 | 2.0 | 6.0 | 0.00 | 0.00 | 0.00 | 100 | 1015.5 |
| 20260503180319 | 85 | 113 | 2.0 | 6.0 | 0.00 | 0.00 | 0.00 | 100 | 1015.5 |
| 20260503175819 | 85 | 92 | 2.0 | 8.0 | 0.00 | 0.00 | 0.00 | 100 | 1015.5 |
| 20260503175319 | 85 | 144 | 1.0 | 3.0 | 0.00 | 0.00 | 0.00 | 100 | 1015.5 |
| 20260503175257 | 84 | 165 | 2.0 | 4.0 | 0.00 | 0.00 | 0.00 | 100 | 1015.6 |
| 20260503174819 | 84 | 165 | 2.0 | 4.0 | 0.00 | 0.00 | 0.00 | 100 | 1015.6 |
| 20260503174325 | 84 | 66 | 3.0 | 7.0 | 0.00 | 0.00 | 0.00 | 100 | 1015.6 |
| 20260503174319 | 84 | 154 | 3.0 | 5.0 | 0.00 | 0.00 | 0.00 | 100 | 1015.6 |
| 20260503173819 | 84 | 66 | 3.0 | 7.0 | 0.00 | 0.00 | 0.00 | 100 | 1015.6 |
| 20260503173319 | 84 | 105 | 0.0 | 6.0 | 0.00 | 0.00 | 0.00 | 100 | 1015.6 |
| 20260503172819 | 83 | 75 | 3.0 | 6.0 | 0.00 | 0.00 | 0.00 | 100 | 1015.6 |
| 20260503172319 | 83 | 81 | 3.0 | 10.0 | 0.00 | 0.00 | 0.00 | 100 | 1015.8 |
| 20260503171819 | 83 | 163 | 3.0 | 7.0 | 0.00 | 0.00 | 0.00 | 100 | 1015.7 |
| 20260503171319 | 83 | 45 | 4.0 | 8.0 | 0.00 | 0.00 | 0.00 | 100 | 1015.8 |
| 20260503170819 | 82 | 102 | 3.0 | 9.0 | 0.00 | 0.00 | 0.00 | 100 | 1016.0 |
| 20260503170319 | 82 | 171 | 2.0 | 11.0 | 0.00 | 0.00 | 0.00 | 100 | 1016.1 |
| 20260503150819 | 79 | 30 | 3.0 | 9.0 | 0.00 | 0.00 | 0.00 | 100 | 1016.8 |
| 20260503150319 | 78 | 81 | 5.0 | 9.0 | 0.00 | 0.00 | 0.00 | 100 | 1016.8 |
| 20260503131319 | 76 | 213 | 1.0 | 9.0 | 0.00 | 0.00 | 0.00 | 100 | 1015.8 |
| 20260503130819 | 76 | 80 | 6.0 | 10.0 | 0.00 | 0.00 | 0.00 | 100 | 1015.9 |
| 20260503130606 | 75 | 329 | 3.0 | 10.0 | 0.00 | 0.00 | 0.00 | 100 | 1015.7 |
| 20260503130319 | 75 | 94 | 4.0 | 9.0 | 0.00 | 0.00 | 0.00 | 100 | 1015.1 |
| 20260503120138 | 74 | 112 | 1.0 | 9.0 | 0.00 | 0.00 | 0.00 | 100 | 1015.1 |
| 20260503110819 | 74 | 80 | 7.0 | 11.0 | 0.00 | 0.00 | 0.00 | 100 | 1014.9 |
| 20260503110319 | 74 | 85 | 1.0 | 10.0 | 0.00 | 0.00 | 0.00 | 100 | 1014.7 |
| 20260503090320 | 74 | 80 | 3.0 | 6.0 | 0.00 | 0.00 | 0.00 | 100 | 1013.9 |
| 20260503081320 | 74 | 50 | 0.0 | 10.0 | 0.00 | 0.00 | 0.00 | 100 | 1013.3 |
| 20260503080820 | 74 | 142 | 3.0 | 14.0 | 0.00 | 0.00 | 0.00 | 100 | 1013.3 |
| 20260503080320 | 74 | 39 | 4.0 | 10.0 | 0.00 | 0.00 | 0.00 | 100 | 1013.3 |
| 20260503072820 | 75 | 75 | 2.0 | 9.0 | 0.00 | 0.00 | 0.00 | 100 | 1013.1 |
| 20260503072320 | 75 | 88 | 1.0 | 7.0 | 0.00 | 0.00 | 0.00 | 100 | 1013.1 |
| 20260503072105 | 75 | 99 | 2.0 | 9.0 | 0.00 | 0.00 | 0.00 | 100 | 1013.1 |
| 20260503071820 | 75 | 99 | 2.0 | 9.0 | 0.00 | 0.00 | 0.00 | 100 | 1013.1 |
| 20260503071320 | 75 | 47 | 1.0 | 9.0 | 0.00 | 0.00 | 0.00 | 100 | 1013.0 |
| 20260503070820 | 75 | 66 | 3.0 | 8.0 | 0.00 | 0.00 | 0.00 | 100 | 1013.0 |
| 20260503070641 | 76 | 11 | 5.0 | 7.0 | 0.00 | 0.00 | 0.00 | 100 | 1013.1 |
| 20260503070320 | 76 | 11 | 5.0 | 7.0 | 0.00 | 0.00 | 0.00 | 100 | 1013.1 |
| 20260503070141 | 76 | 157 | 2.0 | 9.0 | 0.00 | 0.00 | 0.00 | 100 | 1013.2 |